FW1241 Weather Reports


Display with metric or nautical units.
time (UTC)temp
F
wind
direction
speed
MPH
gust
MPH
rain 1hr
in
rain 24hr
in
rain mn
in
humidity
%
barometer
mb
20180219000058 66 321 3.0 7.0 0.00 0.00 0.00 38 1009.9
20180218235059 67 301 4.0 7.0 0.00 0.00 0.00 37 1009.9
20180218234559 67 314 3.0 6.0 0.00 0.00 0.00 37 1009.9
20180218234100 67 311 4.0 6.0 0.00 0.00 0.00 37 1009.9
20180218233600 67 326 3.0 9.0 0.00 0.00 0.00 37 1009.9
20180218233059 67 332 4.0 12.0 0.00 0.00 0.00 37 1009.9
20180218232559 68 324 3.0 12.0 0.00 0.00 0.00 38 1010.0
20180218232059 68 306 3.0 8.0 0.00 0.00 0.00 36 1010.0
20180218231600 68 320 3.0 5.0 0.00 0.00 0.00 35 1010.1
20180218231059 69 323 3.0 7.0 0.00 0.00 0.00 36 1010.1
20180218230559 69 327 3.0 7.0 0.00 0.00 0.00 35 1010.2
20180218230059 68 308 3.0 7.0 0.00 0.00 0.00 35 1010.2
20180218225059 69 329 3.0 7.0 0.00 0.00 0.00 34 1010.3
20180218224559 68 320 2.0 3.0 0.00 0.00 0.00 33 1010.4
20180218223559 68 310 2.0 5.0 0.00 0.00 0.00 35 1010.5
20180218222059 68 325 3.0 6.0 0.00 0.00 0.00 37 1010.8
20180218221559 68 327 5.0 8.0 0.00 0.00 0.00 37 1010.9
20180218220600 68 320 3.0 7.0 0.00 0.00 0.00 35 1011.0
20180218215100 68 317 4.0 8.0 0.00 0.00 0.00 34 1011.2
20180218214600 68 307 3.0 7.0 0.00 0.00 0.00 34 1011.3
20180218214100 68 307 2.0 6.0 0.00 0.00 0.00 34 1011.3
20180218213559 68 310 4.0 6.0 0.00 0.00 0.00 34 1011.4
20180218211559 68 308 2.0 6.0 0.00 0.00 0.00 34 1011.7
20180218211059 68 312 3.0 7.0 0.00 0.00 0.00 34 1011.8
20180218210058 68 321 2.0 5.0 0.00 0.00 0.00 35 1011.9
20180218205558 68 302 3.0 8.0 0.00 0.00 0.00 35 1012.0
20180218205058 68 313 2.0 5.0 0.00 0.00 0.00 35 1012.0
20180218204558 68 301 3.0 6.0 0.00 0.00 0.00 36 1012.1
20180218203558 68 313 2.0 3.0 0.00 0.00 0.00 36 1012.2
20180218203058 68 316 3.0 5.0 0.00 0.00 0.00 36 1012.4
20180218202558 68 276 2.0 5.0 0.00 0.00 0.00 36 1012.4
20180218201558 68 307 2.0 5.0 0.00 0.00 0.00 35 1012.6
20180218201058 68 308 2.0 3.0 0.00 0.00 0.00 36 1012.6
20180218195558 68 321 1.0 3.0 0.00 0.00 0.00 33 1013.0
20180218195058 68 319 1.0 2.0 0.00 0.00 0.00 34 1013.1
20180218194058 67 85 1.0 3.0 0.00 0.00 0.00 38 1013.2
20180218193558 67 131 0.0 2.0 0.00 0.00 0.00 38 1013.3
20180218192558 66 7 2.0 3.0 0.00 0.00 0.00 35 1013.3
20180218192058 66 322 1.0 3.0 0.00 0.00 0.00 39 1013.5
20180218191558 66 320 1.0 3.0 0.00 0.00 0.00 38 1013.5
20180218191058 65 322 1.0 3.0 0.00 0.00 0.00 38 1013.7
20180218190058 66 308 1.0 6.0 0.00 0.00 0.00 40 1013.8
20180218185558 65 198 1.0 3.0 0.00 0.00 0.00 41 1013.8
20180218185058 65 169 1.0 5.0 0.00 0.00 0.00 39 1013.8
20180218184558 66 313 1.0 3.0 0.00 0.00 0.00 38 1013.8
20180218184058 66 122 2.0 5.0 0.00 0.00 0.00 38 1013.8
20180218181558 65 196 0.0 3.0 0.00 0.00 0.00 36 1014.0
20180218181058 65 174 0.0 1.0 0.00 0.00 0.00 39 1014.2
20180218180558 64 227 1.0 3.0 0.00 0.00 0.00 37 1014.1
20180218180058 65 68 0.0 3.0 0.00 0.00 0.00 35 1014.1
20180218175057 64 142 0.0 1.0 0.00 0.00 0.00 38 1014.0
20180218173058 61 302 0.0 1.0 0.00 0.00 0.00 41 1014.3
20180218172558 60 311 0.0 0.0 0.00 0.00 0.00 45 1014.3
20180218171058 60 309 0.0 1.0 0.00 0.00 0.00 45 1014.6
20180218170058 58 293 0.0 1.0 0.00 0.00 0.00 48 1014.7
20180218165558 57 293 0.0 1.0 0.00 0.00 0.00 48 1014.7
20180218165058 56 306 0.0 1.0 0.00 0.00 0.00 51 1014.8
20180218163558 53 305 0.0 2.0 0.00 0.00 0.00 56 1015.0
20180218162558 51 303 0.0 1.0 0.00 0.00 0.00 61 1014.9
20180218162058 50 302 0.0 1.0 0.00 0.00 0.00 64 1015.0
20180218161558 50 311 1.0 2.0 0.00 0.00 0.00 65 1015.0
20180218161058 50 297 0.0 0.0 0.00 0.00 0.00 68 1014.9
20180218160558 49 297 0.0 1.0 0.00 0.00 0.00 67 1014.9
20180218155558 47 288 0.0 1.0 0.00 0.00 0.00 70 1015.0
20180218155058 47 306 0.0 2.0 0.00 0.00 0.00 71 1015.0
20180218153558 44 330 0.0 1.0 0.00 0.00 0.00 77 1015.0
20180218153058 44 23 0.0 0.0 0.00 0.00 0.00 79 1014.8
20180218152558 44 23 0.0 0.0 0.00 0.00 0.00 79 1014.6
20180218152058 43 23 0.0 0.0 0.00 0.00 0.00 80 1014.5
20180218151559 43 23 0.0 0.0 0.00 0.00 0.00 80 1014.4
20180218151058 43 23 0.0 0.0 0.00 0.00 0.00 80 1014.3
20180218150559 42 23 0.0 0.0 0.00 0.00 0.00 80 1014.2
20180218145559 42 23 0.0 0.0 0.00 0.00 0.00 81 1014.1
20180218145059 41 23 0.0 1.0 0.00 0.00 0.00 80 1013.9
20180218143058 39 300 0.0 0.0 0.00 0.00 0.00 86 1014.1
20180218142558 39 300 0.0 0.0 0.00 0.00 0.00 86 1014.0
20180218142058 39 300 0.0 0.0 0.00 0.00 0.00 86 1014.1
20180218141558 39 300 0.0 0.0 0.00 0.00 0.00 86 1014.1
20180218141059 39 300 0.0 0.0 0.00 0.00 0.00 86 1014.1
20180218140558 39 300 0.0 0.0 0.00 0.00 0.00 85 1014.1
20180218140058 39 300 0.0 0.0 0.00 0.00 0.00 85 1014.2
20180218135558 39 300 0.0 0.0 0.00 0.00 0.00 84 1014.2
20180218135058 40 300 0.0 0.0 0.00 0.00 0.00 84 1014.2
20180218134558 40 300 0.0 0.0 0.00 0.00 0.00 82 1014.2
20180218133558 40 300 0.0 0.0 0.00 0.00 0.00 83 1014.2
20180218133058 40 300 0.0 0.0 0.00 0.00 0.00 84 1014.2
20180218132558 40 300 0.0 0.0 0.00 0.00 0.00 84 1014.3
20180218132058 40 300 0.0 0.0 0.00 0.00 0.00 85 1014.3
20180218131558 40 300 0.0 0.0 0.00 0.00 0.00 83 1014.4
20180218131058 40 300 0.0 0.0 0.00 0.00 0.00 84 1014.6
20180218130558 40 300 0.0 0.0 0.00 0.00 0.00 83 1014.7
20180218130059 40 300 0.0 0.0 0.00 0.00 0.00 82 1014.8
20180218125558 41 300 0.0 0.0 0.00 0.00 0.00 81 1014.8
20180218124558 41 300 0.0 0.0 0.00 0.00 0.00 80 1014.8
20180218123558 42 300 0.0 0.0 0.00 0.00 0.00 78 1014.8
20180218122558 43 300 0.0 1.0 0.00 0.00 0.00 75 1014.9
20180218121058 46 300 0.0 0.0 0.00 0.00 0.00 69 1015.0
20180218120558 46 300 0.0 0.0 0.00 0.00 0.00 69 1015.0
20180218115558 47 300 0.0 1.0 0.00 0.00 0.00 67 1015.0
20180218115058 47 300 0.0 1.0 0.00 0.00 0.00 66 1015.0
20180218113558 47 303 0.0 2.0 0.00 0.00 0.00 66 1015.2
20180218113058 47 308 0.0 2.0 0.00 0.00 0.00 66 1015.3
20180218112058 46 310 0.0 2.0 0.00 0.00 0.00 69 1015.4
20180218110558 45 311 0.0 1.0 0.00 0.00 0.00 73 1015.6
20180218110058 44 314 0.0 1.0 0.00 0.00 0.00 74 1015.6
20180218105059 44 301 0.0 1.0 0.00 0.00 0.00 75 1015.7
20180218103558 43 323 0.0 2.0 0.00 0.00 0.00 80 1015.8
20180218103059 42 333 0.0 0.0 0.00 0.00 0.00 81 1015.8
20180218102558 42 316 0.0 0.0 0.00 0.00 0.00 82 1015.8
20180218101559 41 316 0.0 0.0 0.00 0.00 0.00 83 1015.7
20180218100558 42 316 0.0 5.0 0.00 0.00 0.00 83 1015.8
20180218100058 42 316 0.0 0.0 0.00 0.00 0.00 84 1015.8
20180218095558 41 316 0.0 0.0 0.00 0.00 0.00 84 1015.8
20180218095058 41 316 0.0 0.0 0.00 0.00 0.00 84 1015.9
20180218094059 41 316 0.0 0.0 0.00 0.00 0.00 84 1015.9
20180218093558 41 316 0.0 0.0 0.00 0.00 0.00 83 1015.9
20180218093058 41 316 0.0 0.0 0.00 0.00 0.00 83 1016.0
20180218092058 41 316 0.0 0.0 0.00 0.00 0.00 82 1016.0
20180218091558 41 316 0.0 0.0 0.00 0.00 0.00 82 1016.0
20180218090059 42 316 0.0 0.0 0.00 0.00 0.00 83 1015.9
20180218084058 42 316 0.0 0.0 0.00 0.00 0.00 82 1016.1
20180218083559 42 316 0.0 0.0 0.00 0.00 0.00 81 1016.1
20180218083058 42 316 0.0 0.0 0.00 0.00 0.00 83 1016.1
20180218082558 42 316 0.0 0.0 0.00 0.00 0.00 81 1016.1
20180218081558 43 316 0.0 0.0 0.00 0.00 0.00 79 1016.2
20180218080058 43 316 0.0 0.0 0.00 0.00 0.00 78 1016.5
20180218075558 44 316 0.0 0.0 0.00 0.00 0.00 77 1016.5
20180218075058 44 316 0.0 0.0 0.00 0.00 0.00 78 1016.6
20180218074058 45 316 0.0 0.0 0.00 0.00 0.00 79 1016.7
20180218073558 44 316 0.0 0.0 0.00 0.00 0.00 79 1016.7
20180218073058 44 316 0.0 0.0 0.00 0.00 0.00 80 1016.7
20180218071558 44 316 0.0 0.0 0.00 0.00 0.00 79 1016.9
20180218071059 45 316 0.0 0.0 0.00 0.00 0.00 78 1016.9
20180218070558 45 316 0.0 0.0 0.00 0.00 0.00 79 1017.0
20180218070058 46 316 0.0 0.0 0.00 0.00 0.00 77 1017.0
20180218065058 45 316 0.0 0.0 0.00 0.00 0.00 77 1017.0
20180218064558 45 316 0.0 0.0 0.00 0.00 0.00 77 1017.0
20180218064058 45 316 0.0 0.0 0.00 0.00 0.00 78 1017.1
20180218063558 45 316 0.0 0.0 0.00 0.00 0.00 77 1017.2
20180218062558 46 316 0.0 0.0 0.00 0.00 0.00 76 1017.2
20180218062059 46 316 0.0 0.0 0.00 0.00 0.00 75 1017.3
20180218061058 47 316 0.0 0.0 0.00 0.00 0.00 72 1017.4
20180218060558 47 316 0.0 0.0 0.00 0.00 0.00 73 1017.4
20180218060058 48 316 0.0 0.0 0.00 0.00 0.00 71 1017.5
20180218055558 48 316 0.0 0.0 0.00 0.00 0.00 70 1017.4
20180218055058 48 316 0.0 0.0 0.00 0.00 0.00 71 1017.4
20180218054559 47 316 0.0 0.0 0.00 0.00 0.00 72 1017.5
20180218054058 48 316 0.0 0.0 0.00 0.00 0.00 72 1017.4
20180218053558 48 316 0.0 0.0 0.00 0.00 0.00 72 1017.5
20180218053059 48 316 0.0 0.0 0.00 0.00 0.00 72 1017.5
20180218052559 48 316 0.0 0.0 0.00 0.00 0.00 72 1017.5
20180218051558 48 316 0.0 0.0 0.00 0.00 0.00 71 1017.5
20180218051058 49 316 0.0 0.0 0.00 0.00 0.00 70 1017.5
20180218050058 49 316 0.0 0.0 0.00 0.00 0.00 69 1017.4
20180218045558 49 316 0.0 0.0 0.00 0.00 0.00 69 1017.4
20180218045058 49 316 0.0 0.0 0.00 0.00 0.00 69 1017.3
20180218044558 49 316 0.0 0.0 0.00 0.00 0.00 69 1017.2
20180218044058 50 316 0.0 0.0 0.00 0.00 0.00 69 1017.2
20180218043058 50 316 0.0 0.0 0.00 0.00 0.00 68 1017.1
20180218042558 51 316 0.0 0.0 0.00 0.00 0.00 69 1017.2
20180218042059 51 316 0.0 0.0 0.00 0.00 0.00 68 1017.1
20180218041558 51 316 0.0 0.0 0.00 0.00 0.00 67 1017.2
20180218040558 52 316 0.0 0.0 0.00 0.00 0.00 62 1017.2
20180218040059 52 316 0.0 0.0 0.00 0.00 0.00 62 1017.2
20180218035558 52 316 0.0 0.0 0.00 0.00 0.00 61 1017.2
20180218035058 52 316 0.0 0.0 0.00 0.00 0.00 61 1017.2
20180218033600 53 316 0.0 0.0 0.00 0.00 0.00 61 1017.2
20180218033100 53 316 0.0 0.0 0.00 0.00 0.00 60 1017.2
20180218032107 53 316 0.0 0.0 0.00 0.00 0.00 58 1017.3
20180218031558 54 316 0.0 0.0 0.00 0.00 0.00 59 1017.3
20180218031058 54 316 0.0 0.0 0.00 0.00 0.00 58 1017.3
20180218030558 54 316 0.0 0.0 0.00 0.00 0.00 59 1017.3
20180218025558 55 316 0.0 0.0 0.00 0.00 0.00 59 1017.3
20180218025058 55 316 0.0 0.0 0.00 0.00 0.00 58 1017.2
20180218024559 56 316 0.0 0.0 0.00 0.00 0.00 56 1017.2
20180218024058 56 316 0.0 0.0 0.00 0.00 0.00 54 1017.1
20180218023558 57 316 0.0 0.0 0.00 0.00 0.00 52 1017.1
20180218023058 57 316 0.0 0.0 0.00 0.00 0.00 53 1017.2
20180218022058 59 316 0.0 0.0 0.00 0.00 0.00 50 1017.1
20180218021558 59 316 0.0 0.0 0.00 0.00 0.00 47 1017.2
20180218020558 60 316 0.0 0.0 0.00 0.00 0.00 45 1017.2
20180218020059 61 316 0.0 0.0 0.00 0.00 0.00 43 1017.2
20180218015558 61 316 0.0 0.0 0.00 0.00 0.00 42 1017.2
20180218014558 63 316 0.0 0.0 0.00 0.00 0.00 41 1017.2
20180218014058 64 316 0.0 0.0 0.00 0.00 0.00 38 1017.2
20180218013558 64 316 0.0 0.0 0.00 0.00 0.00 38 1017.3
20180218013059 65 316 0.0 0.0 0.00 0.00 0.00 38 1017.3
20180218012558 66 316 0.0 0.0 0.00 0.00 0.00 36 1017.4
20180218011558 66 312 1.0 2.0 0.00 0.00 0.00 34 1017.5
20180218011058 67 312 0.0 2.0 0.00 0.00 0.00 34 1017.4
20180218010558 67 318 1.0 2.0 0.00 0.00 0.00 34 1017.5
20180218005559 68 307 1.0 2.0 0.00 0.00 0.00 34 1017.5
20180218005059 68 308 0.0 2.0 0.00 0.00 0.00 33 1017.5
20180218004059 68 309 2.0 2.0 0.00 0.00 0.00 32 1017.5
20180218003100 69 322 1.0 3.0 0.00 0.00 0.00 31 1017.5
20180218002559 69 306 1.0 3.0 0.00 0.00 0.00 30 1017.6
20180218002058 69 315 1.0 3.0 0.00 0.00 0.00 30 1017.6
20180218001558 69 324 2.0 3.0 0.00 0.00 0.00 30 1017.6